> Flugplatz > 
Stacks Image 3
Aktuelle METAR Daten (Memmingen, Friedrichshafen, Laupheim):
2018/01/21 04:20 EDJA 211620Z 27004KT CAVOK M01/M03 Q1017
2018/01/21 04:20 EDNY 211620Z 00000KT CAVOK 02/M03 Q1019
2018/01/21 04:20 ETHL 211620Z 20003KT 9999 FEW030 BKN220 M01/M03 Q1018 BLU+
Sicherheits- und Servicehinweise:

Bitte achten Sie beim Anflug auf mögliche Fall­schirm­springer auf der Nordseite des Platzes, kontaktieren Sie zur Sicherheit den Flugleiter auf Leutkirch INFO 122,875.

Zollabfertigung:
für Ein- und Ausflug bei Voranmeldung mindestens 3 Stunden, nur Personenverkehr – keine Warenabfertigung.

Günstig Tanken:
AvGas 100LL · Jet A1l

Aktuelles:

Winterflugbetrieb:
vom 01.11.2017 bis 14.03.2018.
Täglich 10:00-17:00 (loc)
So+HOL 10:30-17:00 (loc)
Closed 25.12.17 + 01.01.18

Weitere Informationen finden Sie in unserem Newsbereich.

Nutzen Sie unsere Online-Anmeldung zur Zoll- und Passkontrolle.